Regional Weather Roundup
Issued by NWS

Home | Current Version | Previous Version | Graphics & Text | Print | Product List | Glossary On
Versions: 1 2 3 4 5 6 7 8 9 10 11 12 13 14 15 16 17 18 19 20 21 22 23 24 25 26 27 28 29 30 31 32 33 34 35 36 37 38 39 40 41 42 43 44 45 46 47 48 49 50
000
ASUS43 KOAX 300202
RWRNE

WEATHER ROUNDUP FOR NEBRASKA
NATIONAL WEATHER SERVICE OMAHA NE
900 PM CDT FRI AUG 29 2014

NOTES: SATELLITE DATA IS BEING USED TO AUGMENT CLOUD COVER ABOVE
       12000 FEET.
       "FAIR" INDICATES FEW OR NO CLOUDS BELOW 12,000 FEET WITH NO
       SIGNIFICANT WEATHER AND/OR OBSTRUCTIONS TO VISIBILITY.

  * THESE STATIONS DO NOT REPORT WEATHER SUCH AS RAIN...SNOW OR FOG.

NEZ001>004-019>022-054>056-300300-
NEBRASKA PANHANDLE

CITY           SKY/WX    TMP DP  RH WIND       PRES   REMARKS
SCOTTSBLUFF    CLEAR     67  59  75 E8        30.03R
ALLIANCE       CLEAR     65  54  67 E5        30.03R
CHADRON        CLEAR     67  55  65 SE3       30.00R
KIMBALL        MOCLDY    65  53  67 E6        30.08R
SIDNEY         PTCLDY    67  52  58 NE7       30.07R
$$

NEZ057>060-069>072-079>082-300300-
SOUTHWEST NEBRASKA

CITY           SKY/WX    TMP DP  RH WIND       PRES   REMARKS
NORTH PLATTE   CLEAR     64  60  87 NW6       29.96R
IMPERIAL       PTCLDY    69  59  70 N7        29.99R
LEXINGTON      PTCLDY    69  65  86 NW5       29.92R
MCCOOK         PTCLDY    72  62  71 NE5       29.92R
OGALLALA       CLEAR     67  56  67 N9        30.00R
$$

NEZ005>010-023>029-035>040-094-300300-
NORTH CENTRAL NEBRASKA

CITY           SKY/WX    TMP DP  RH WIND       PRES   REMARKS
VALENTINE      CLEAR     68  58  70 N7        29.96R
AINSWORTH      PTCLDY    67  57  71 N8        29.95R
BROKEN BOW     TSTM      61  58  90 W6        29.95S
O`NEILL        CLOUDY    69  65  87 NE13      29.91R
ORD            LGT RAIN  69  59  70 W6        29.89R
THEDFORD       PTCLDY    69  59  69 N6        29.99R
$$

NEZ041-046>049-061>064-073>077-083>087-300300-
SOUTH CENTRAL NEBRASKA

CITY           SKY/WX    TMP DP  RH WIND       PRES   REMARKS
GRAND ISLAND   CLEAR     69  66  90 N5        29.88R
AURORA         CLEAR     67  66  97 N3        29.87R
HASTINGS       CLEAR     72  64  76 CALM      29.87R
HEBRON         PTCLDY    71  65  82 CALM      29.85R
HOLDREGE       CLEAR     71  65  80 CALM      29.90R
KEARNEY *      CLEAR     75  64  69 N6        29.90R
$$

NEZ011>018-030>034-042>045-300300-
NORTHEAST NEBRASKA

CITY           SKY/WX    TMP DP  RH WIND       PRES   REMARKS
NORFOLK        PTCLDY    69  66  90 W6        29.83R
ALBION         PTCLDY    67  64  90 CALM      29.86R
BLAIR          MOCLDY    68  66  91 S6        29.79F
FREMONT        MOCLDY    70  67  88 SW3       29.81S
TEKAMAH        CLOUDY    68  67  96 CALM      29.79S
WAYNE          CLOUDY    67  65  95 NW7       29.83R
$$

NEZ050>053-065>068-078-088>093-300300-
SOUTHEAST NEBRASKA

CITY           SKY/WX    TMP DP  RH WIND       PRES   REMARKS
LINCOLN        PTCLDY    70  66  87 CALM      29.83R
OMAHA EPPLEY   MOCLDY    71  67  87 CALM      29.80R
BEATRICE       PTCLDY    69  67  92 CALM      29.82R
FALLS CITY     MOCLDY    75  71  87 NW5       29.79R
NEBRASKA CITY  MOCLDY    70  69  96 NW6       29.82R
PLATTSMOUTH    CLOUDY    70  67  90 SW3       29.81S
$$

NEZ044-045-051>053-067-300300-
OMAHA AREA

CITY           SKY/WX    TMP DP  RH WIND       PRES   REMARKS
OMAHA EPPLEY   MOCLDY    71  67  87 CALM      29.80R
BLAIR          MOCLDY    68  66  91 S6        29.79F
FREMONT        MOCLDY    70  67  88 SW3       29.81S
MILLARD        PTCLDY    69  66  89 CALM      29.79F
OFFUTT AFB     MOCLDY    70  70 100 W2        29.79S
PLATTSMOUTH    CLOUDY    70  67  90 SW3       29.81S
WAHOO          FAIR      69  65  88 SW6       29.80F
$$


USA.gov is the U.S. government's official web portal to all federal, state and local government web resources and services.